owner,sensor,date,latitude,longitude,vertical_datum,mass_concentration_of_oxygen_in_sea_water,qcFlag 
DISL,ioos:station:DISL:DISL:1,2012-04-01T00:00:00Z,30.2513,-88.0778,7.25,8.37,1111122 
DISL,ioos:station:DISL:DISL:1,2012-04-01T00:30:00Z,30.2513,-88.0778,7.12,8.18,1111122 
DISL,ioos:station:DISL:DISL:1,2012-04-01T01:00:00Z,30.2513,-88.0778,7.14,8.14,1111122 
DISL,ioos:station:DISL:DISL:1,2012-04-01T01:30:00Z,30.2513,-88.0778,7.12,7.92,1111122 
DISL,ioos:station:DISL:DISL:1,2012-04-01T02:00:00Z,30.2513,-88.0778,7.04,8.03,1111122 
DISL,ioos:station:DISL:DISL:1,2012-04-01T02:30:00Z,30.2513,-88.0778,7.01,7.61,1111122 
DISL,ioos:station:DISL:DISL:1,2012-04-01T03:00:00Z,30.2513,-88.0778,6.943,7.59,1111122 
DISL,ioos:station:DISL:DISL:1,2012-04-01T03:30:00Z,30.2513,-88.0778,6.87,7.75,1111122 
DISL,ioos:station:DISL:DISL:1,2012-04-01T04:00:00Z,30.2513,-88.0778,6.822,7.68,1111122 
DISL,ioos:station:DISL:DISL:1,2012-04-01T04:30:00Z,30.2513,-88.0778,6.726,7.58,1111122 
DISL,ioos:station:DISL:DISL:1,2012-04-01T05:00:00Z,30.2513,-88.0778,6.657,7.59,1111122 
DISL,ioos:station:DISL:DISL:1,2012-04-01T05:30:00Z,30.2513,-88.0778,6.615,6.7,1111122 
DISL,ioos:station:DISL:DISL:1,2012-04-01T06:00:00Z,30.2513,-88.0778,6.52,7.46,1111122 
DISL,ioos:station:DISL:DISL:1,2012-04-01T06:30:00Z,30.2513,-88.0778,6.465,6.43,1111122 
DISL,ioos:station:DISL:DISL:1,2012-04-01T07:00:00Z,30.2513,-88.0778,6.322,5.65,1111122 
DISL,ioos:station:DISL:DISL:1,2012-04-01T07:30:00Z,30.2513,-88.0778,6.319,5.92,1111122 
DISL,ioos:station:DISL:DISL:1,2012-04-01T08:00:00Z,30.2513,-88.0778,6.274,5.87,1111122 
DISL,ioos:station:DISL:DISL:1,2012-04-01T08:30:00Z,30.2513,-88.0778,6.268,5.97,1111122 
DISL,ioos:station:DISL:DISL:1,2012-04-01T09:00:00Z,30.2513,-88.0778,6.201,6.2,1111122 
DISL,ioos:station:DISL:DISL:1,2012-04-01T09:30:00Z,30.2513,-88.0778,6.188,6.79,1111122 
DISL,ioos:station:DISL:DISL:1,2012-04-01T10:00:00Z,30.2513,-88.0778,6.126,6.95,1111122 
DISL,ioos:station:DISL:DISL:1,2012-04-01T10:30:00Z,30.2513,-88.0778,6.22,6.49,1111122 
DISL,ioos:station:DISL:DISL:1,2012-04-01T11:00:00Z,30.2513,-88.0778,6.297,5.92,1111122 
DISL,ioos:station:DISL:DISL:1,2012-04-01T11:30:00Z,30.2513,-88.0778,6.265,5.82,1111122 
DISL,ioos:station:DISL:DISL:1,2012-04-01T12:00:00Z,30.2513,-88.0778,6.284,5.56,1111122 
DISL,ioos:station:DISL:DISL:1,2012-04-01T12:30:00Z,30.2513,-88.0778,6.323,5.3,1111122 
DISL,ioos:station:DISL:DISL:1,2012-04-01T13:00:00Z,30.2513,-88.0778,6.347,5.26,1111122 
DISL,ioos:station:DISL:DISL:1,2012-04-01T13:30:00Z,30.2513,-88.0778,6.405,5.52,1111122 
DISL,ioos:station:DISL:DISL:1,2012-04-01T14:00:00Z,30.2513,-88.0778,6.033,5.89,1111122 
DISL,ioos:station:DISL:DISL:1,2012-04-01T14:30:00Z,30.2513,-88.0778,6.452,5.89,1111122 
DISL,ioos:station:DISL:DISL:1,2012-04-01T15:00:00Z,30.2513,-88.0778,6.485,5.42,1111122 
DISL,ioos:station:DISL:DISL:1,2012-04-01T15:30:00Z,30.2513,-88.0778,6.597,5.69,1111122 
DISL,ioos:station:DISL:DISL:1,2012-04-01T16:00:00Z,30.2513,-88.0778,6.634,5.62,1111122 
DISL,ioos:station:DISL:DISL:1,2012-04-01T16:30:00Z,30.2513,-88.0778,6.664,6.09,1111122 
DISL,ioos:station:DISL:DISL:1,2012-04-01T17:00:00Z,30.2513,-88.0778,6.714,6.41,1111122 
DISL,ioos:station:DISL:DISL:1,2012-04-01T17:30:00Z,30.2513,-88.0778,6.761,6.8,1111122 
DISL,ioos:station:DISL:DISL:1,2012-04-01T18:00:00Z,30.2513,-88.0778,6.803,7.23,1111122 
DISL,ioos:station:DISL:DISL:1,2012-04-01T18:30:00Z,30.2513,-88.0778,6.896,7.48,1111122 
DISL,ioos:station:DISL:DISL:1,2012-04-01T19:00:00Z,30.2513,-88.0778,6.78,7.53,1111122 
DISL,ioos:station:DISL:DISL:1,2012-04-01T19:30:00Z,30.2513,-88.0778,6.844,7.46,1111122 
DISL,ioos:station:DISL:DISL:1,2012-04-01T20:00:00Z,30.2513,-88.0778,6.887,7.8,1111122 
DISL,ioos:station:DISL:DISL:1,2012-04-01T20:30:00Z,30.2513,-88.0778,7.03,7.32,1111122 
DISL,ioos:station:DISL:DISL:1,2012-04-01T21:00:00Z,30.2513,-88.0778,6.941,6.7,1111122 
DISL,ioos:station:DISL:DISL:1,2012-04-01T21:30:00Z,30.2513,-88.0778,7.04,7.35,1111122 
DISL,ioos:station:DISL:DISL:1,2012-04-01T22:00:00Z,30.2513,-88.0778,7.0,7.86,1111122 
DISL,ioos:station:DISL:DISL:1,2012-04-01T22:30:00Z,30.2513,-88.0778,7.06,7.82,1111122 
DISL,ioos:station:DISL:DISL:1,2012-04-01T23:00:00Z,30.2513,-88.0778,7.07,8.01,1111122 
DISL,ioos:station:DISL:DISL:1,2012-04-01T23:30:00Z,30.2513,-88.0778,7.09,8.3,1111122 
DISL,ioos:station:DISL:DISL:1,2012-04-02T00:00:00Z,30.2513,-88.0778,7.11,8.32,1111122 
DISL,ioos:station:DISL:DISL:1,2012-04-02T00:30:00Z,30.2513,-88.0778,7.13,8.32,1111122 
DISL,ioos:station:DISL:DISL:1,2012-04-02T01:00:00Z,30.2513,-88.0778,7.06,8.01,1111122 
DISL,ioos:station:DISL:DISL:1,2012-04-02T01:30:00Z,30.2513,-88.0778,6.973,8.0,1111122 
DISL,ioos:station:DISL:DISL:1,2012-04-02T02:00:00Z,30.2513,-88.0778,6.897,7.61,1111122 
DISL,ioos:station:DISL:DISL:1,2012-04-02T02:30:00Z,30.2513,-88.0778,6.901,7.82,1111122 
DISL,ioos:station:DISL:DISL:1,2012-04-02T03:00:00Z,30.2513,-88.0778,6.835,7.42,1111122 
DISL,ioos:station:DISL:DISL:1,2012-04-02T03:30:00Z,30.2513,-88.0778,6.776,7.67,1111122 
DISL,ioos:station:DISL:DISL:1,2012-04-02T04:00:00Z,30.2513,-88.0778,6.729,7.36,1111122 
DISL,ioos:station:DISL:DISL:1,2012-04-02T04:30:00Z,30.2513,-88.0778,6.672,7.27,1111122 
DISL,ioos:station:DISL:DISL:1,2012-04-02T05:00:00Z,30.2513,-88.0778,6.623,6.53,1111122 
DISL,ioos:station:DISL:DISL:1,2012-04-02T05:30:00Z,30.2513,-88.0778,6.516,6.58,1111122 
DISL,ioos:station:DISL:DISL:1,2012-04-02T06:00:00Z,30.2513,-88.0778,6.434,5.57,1111122 
DISL,ioos:station:DISL:DISL:1,2012-04-02T06:30:00Z,30.2513,-88.0778,6.427,6.58,1111122 
DISL,ioos:station:DISL:DISL:1,2012-04-02T07:00:00Z,30.2513,-88.0778,6.389,6.5,1111122 
DISL,ioos:station:DISL:DISL:1,2012-04-02T07:30:00Z,30.2513,-88.0778,6.251,6.41,1111122 
DISL,ioos:station:DISL:DISL:1,2012-04-02T08:00:00Z,30.2513,-88.0778,6.257,6.58,1111122 
DISL,ioos:station:DISL:DISL:1,2012-04-02T08:30:00Z,30.2513,-88.0778,6.224,6.47,1111122 
DISL,ioos:station:DISL:DISL:1,2012-04-02T09:00:00Z,30.2513,-88.0778,6.25,6.03,1111122 
DISL,ioos:station:DISL:DISL:1,2012-04-02T09:30:00Z,30.2513,-88.0778,6.186,6.01,1111122 
DISL,ioos:station:DISL:DISL:1,2012-04-02T10:00:00Z,30.2513,-88.0778,6.23,5.77,1111122 
DISL,ioos:station:DISL:DISL:1,2012-04-02T10:30:00Z,30.2513,-88.0778,6.235,5.79,1111122 
DISL,ioos:station:DISL:DISL:1,2012-04-02T11:00:00Z,30.2513,-88.0778,6.274,5.93,1111122 
DISL,ioos:station:DISL:DISL:1,2012-04-02T11:30:00Z,30.2513,-88.0778,6.229,5.42,1111122 
DISL,ioos:station:DISL:DISL:1,2012-04-02T12:00:00Z,30.2513,-88.0778,6.253,5.4,1111122 
DISL,ioos:station:DISL:DISL:1,2012-04-02T12:30:00Z,30.2513,-88.0778,6.282,5.94,1111122 
DISL,ioos:station:DISL:DISL:1,2012-04-02T13:00:00Z,30.2513,-88.0778,6.37,5.73,1111122 
DISL,ioos:station:DISL:DISL:1,2012-04-02T13:30:00Z,30.2513,-88.0778,6.43,5.64,1111122 
DISL,ioos:station:DISL:DISL:1,2012-04-02T14:00:00Z,30.2513,-88.0778,6.467,5.53,1111122 
DISL,ioos:station:DISL:DISL:1,2012-04-02T14:30:00Z,30.2513,-88.0778,6.448,5.74,1111122 
DISL,ioos:station:DISL:DISL:1,2012-04-02T15:00:00Z,30.2513,-88.0778,6.51,5.78,1111122 
DISL,ioos:station:DISL:DISL:1,2012-04-02T15:30:00Z,30.2513,-88.0778,6.542,5.33,1111122 
DISL,ioos:station:DISL:DISL:1,2012-04-02T16:00:00Z,30.2513,-88.0778,6.593,6.02,1111122 
DISL,ioos:station:DISL:DISL:1,2012-04-02T16:30:00Z,30.2513,-88.0778,6.532,5.99,1111122 
DISL,ioos:station:DISL:DISL:1,2012-04-02T17:00:00Z,30.2513,-88.0778,6.607,6.02,1111122 
DISL,ioos:station:DISL:DISL:1,2012-04-02T17:30:00Z,30.2513,-88.0778,6.647,6.11,1111122 
DISL,ioos:station:DISL:DISL:1,2012-04-02T18:00:00Z,30.2513,-88.0778,6.703,6.5,1111122 
DISL,ioos:station:DISL:DISL:1,2012-04-02T18:30:00Z,30.2513,-88.0778,6.659,6.56,1111122 
DISL,ioos:station:DISL:DISL:1,2012-04-02T19:00:00Z,30.2513,-88.0778,6.675,6.08,1111122 
DISL,ioos:station:DISL:DISL:1,2012-04-02T19:30:00Z,30.2513,-88.0778,6.803,6.63,1111122 
DISL,ioos:station:DISL:DISL:1,2012-04-02T20:00:00Z,30.2513,-88.0778,6.789,7.21,1111122 
DISL,ioos:station:DISL:DISL:1,2012-04-02T20:30:00Z,30.2513,-88.0778,6.848,7.32,1111122 
DISL,ioos:station:DISL:DISL:1,2012-04-02T21:00:00Z,30.2513,-88.0778,6.839,7.46,1111122 
DISL,ioos:station:DISL:DISL:1,2012-04-02T21:30:00Z,30.2513,-88.0778,6.973,7.37,1111122 
DISL,ioos:station:DISL:DISL:1,2012-04-02T22:00:00Z,30.2513,-88.0778,7.04,7.23,1111122 
DISL,ioos:station:DISL:DISL:1,2012-04-02T22:30:00Z,30.2513,-88.0778,7.13,6.44,1111122 
DISL,ioos:station:DISL:DISL:1,2012-04-02T23:00:00Z,30.2513,-88.0778,7.12,6.84,1111122 
DISL,ioos:station:DISL:DISL:1,2012-04-02T23:30:00Z,30.2513,-88.0778,7.13,7.65,1111122 
DISL,ioos:station:DISL:DISL:1,2012-04-03T00:00:00Z,30.2513,-88.0778,7.26,7.13,1111122 
DISL,ioos:station:DISL:DISL:1,2012-04-03T00:30:00Z,30.2513,-88.0778,7.25,7.31,1111122 
DISL,ioos:station:DISL:DISL:1,2012-04-03T01:00:00Z,30.2513,-88.0778,7.25,7.27,1111122 
DISL,ioos:station:DISL:DISL:1,2012-04-03T01:30:00Z,30.2513,-88.0778,7.21,7.2,1111122 
DISL,ioos:station:DISL:DISL:1,2012-04-03T02:00:00Z,30.2513,-88.0778,7.25,6.72,1111122 
DISL,ioos:station:DISL:DISL:1,2012-04-03T02:30:00Z,30.2513,-88.0778,7.27,6.81,1111122 
DISL,ioos:station:DISL:DISL:1,2012-04-03T03:00:00Z,30.2513,-88.0778,7.21,6.36,1111122 
DISL,ioos:station:DISL:DISL:1,2012-04-03T03:30:00Z,30.2513,-88.0778,7.23,8.27,1111122 
DISL,ioos:station:DISL:DISL:1,2012-04-03T04:00:00Z,30.2513,-88.0778,7.35,7.13,1111122 
DISL,ioos:station:DISL:DISL:1,2012-04-03T04:30:00Z,30.2513,-88.0778,7.26,6.93,1111122 
DISL,ioos:station:DISL:DISL:1,2012-04-03T05:00:00Z,30.2513,-88.0778,7.08,7.52,1111122 
DISL,ioos:station:DISL:DISL:1,2012-04-03T05:30:00Z,30.2513,-88.0778,6.42,7.34,1111122 
DISL,ioos:station:DISL:DISL:1,2012-04-03T06:00:00Z,30.2513,-88.0778,6.848,7.39,1111122 
DISL,ioos:station:DISL:DISL:1,2012-04-03T06:30:00Z,30.2513,-88.0778,6.869,7.03,1111122 
DISL,ioos:station:DISL:DISL:1,2012-04-03T07:00:00Z,30.2513,-88.0778,6.917,6.9,1111122 
DISL,ioos:station:DISL:DISL:1,2012-04-03T07:30:00Z,30.2513,-88.0778,6.409,7.05,1111122 
DISL,ioos:station:DISL:DISL:1,2012-04-03T08:00:00Z,30.2513,-88.0778,6.401,7.08,1111122 
DISL,ioos:station:DISL:DISL:1,2012-04-03T08:30:00Z,30.2513,-88.0778,6.332,7.09,1111122 
DISL,ioos:station:DISL:DISL:1,2012-04-03T09:00:00Z,30.2513,-88.0778,6.502,6.4,1111122 
DISL,ioos:station:DISL:DISL:1,2012-04-03T09:30:00Z,30.2513,-88.0778,6.629,6.29,1111122 
DISL,ioos:station:DISL:DISL:1,2012-04-03T10:00:00Z,30.2513,-88.0778,6.134,6.34,1111122 
DISL,ioos:station:DISL:DISL:1,2012-04-03T10:30:00Z,30.2513,-88.0778,6.436,6.42,1111122 
DISL,ioos:station:DISL:DISL:1,2012-04-03T11:00:00Z,30.2513,-88.0778,6.429,6.41,1111122 
DISL,ioos:station:DISL:DISL:1,2012-04-03T11:30:00Z,30.2513,-88.0778,6.612,6.53,1111122 
DISL,ioos:station:DISL:DISL:1,2012-04-03T12:00:00Z,30.2513,-88.0778,6.44,6.5,1111122 
DISL,ioos:station:DISL:DISL:1,2012-04-03T12:30:00Z,30.2513,-88.0778,6.56,6.22,1111122 
DISL,ioos:station:DISL:DISL:1,2012-04-03T13:00:00Z,30.2513,-88.0778,6.537,6.12,1111122 
DISL,ioos:station:DISL:DISL:1,2012-04-03T13:30:00Z,30.2513,-88.0778,6.54,6.11,1111122 
DISL,ioos:station:DISL:DISL:1,2012-04-03T14:00:00Z,30.2513,-88.0778,6.411,6.05,1111122 
DISL,ioos:station:DISL:DISL:1,2012-04-03T14:30:00Z,30.2513,-88.0778,6.724,5.95,1111122 
DISL,ioos:station:DISL:DISL:1,2012-04-03T15:00:00Z,30.2513,-88.0778,6.888,5.88,1111122 
DISL,ioos:station:DISL:DISL:1,2012-04-03T15:30:00Z,30.2513,-88.0778,6.914,6.21,1111122 
DISL,ioos:station:DISL:DISL:1,2012-04-03T16:00:00Z,30.2513,-88.0778,6.889,6.51,1111122 
DISL,ioos:station:DISL:DISL:1,2012-04-03T16:30:00Z,30.2513,-88.0778,6.988,6.76,1111122 
DISL,ioos:station:DISL:DISL:1,2012-04-03T17:00:00Z,30.2513,-88.0778,6.894,6.94,1111122 
DISL,ioos:station:DISL:DISL:1,2012-04-03T17:30:00Z,30.2513,-88.0778,6.797,6.97,1111122 
DISL,ioos:station:DISL:DISL:1,2012-04-03T18:00:00Z,30.2513,-88.0778,6.67,7.15,1111122 
DISL,ioos:station:DISL:DISL:1,2012-04-03T18:30:00Z,30.2513,-88.0778,6.733,7.02,1111122 
DISL,ioos:station:DISL:DISL:1,2012-04-03T19:00:00Z,30.2513,-88.0778,6.873,8.26,1111122 
DISL,ioos:station:DISL:DISL:1,2012-04-03T19:30:00Z,30.2513,-88.0778,6.644,7.64,1111122 
DISL,ioos:station:DISL:DISL:1,2012-04-03T20:00:00Z,30.2513,-88.0778,6.709,8.71,1111122 
DISL,ioos:station:DISL:DISL:1,2012-04-03T20:30:00Z,30.2513,-88.0778,6.771,8.8,1111122 
DISL,ioos:station:DISL:DISL:1,2012-04-03T21:00:00Z,30.2513,-88.0778,6.726,8.31,1111122 
DISL,ioos:station:DISL:DISL:1,2012-04-03T21:30:00Z,30.2513,-88.0778,6.716,8.0,1111122 
DISL,ioos:station:DISL:DISL:1,2012-04-03T22:00:00Z,30.2513,-88.0778,6.604,8.08,1111122 
DISL,ioos:station:DISL:DISL:1,2012-04-03T22:30:00Z,30.2513,-88.0778,6.699,7.77,1111122 
DISL,ioos:station:DISL:DISL:1,2012-04-03T23:00:00Z,30.2513,-88.0778,6.734,7.74,1111122 
DISL,ioos:station:DISL:DISL:1,2012-04-03T23:30:00Z,30.2513,-88.0778,6.697,7.88,1111122 
DISL,ioos:station:DISL:DISL:1,2012-04-04T00:00:00Z,30.2513,-88.0778,6.647,7.81,1111122 
DISL,ioos:station:DISL:DISL:1,2012-04-04T00:30:00Z,30.2513,-88.0778,6.711,7.63,1111122 
DISL,ioos:station:DISL:DISL:1,2012-04-04T01:00:00Z,30.2513,-88.0778,6.719,7.23,1111122 
DISL,ioos:station:DISL:DISL:1,2012-04-04T01:30:00Z,30.2513,-88.0778,6.829,7.28,1111122 
DISL,ioos:station:DISL:DISL:1,2012-04-04T02:00:00Z,30.2513,-88.0778,6.807,6.96,1111122 
DISL,ioos:station:DISL:DISL:1,2012-04-04T02:30:00Z,30.2513,-88.0778,6.848,6.63,1111122 
DISL,ioos:station:DISL:DISL:1,2012-04-04T03:00:00Z,30.2513,-88.0778,6.836,7.37,1111122 
DISL,ioos:station:DISL:DISL:1,2012-04-04T03:30:00Z,30.2513,-88.0778,6.935,7.29,1111122 
DISL,ioos:station:DISL:DISL:1,2012-04-04T04:00:00Z,30.2513,-88.0778,6.84,7.45,1111122 
DISL,ioos:station:DISL:DISL:1,2012-04-04T04:30:00Z,30.2513,-88.0778,6.897,7.28,1111122 
DISL,ioos:station:DISL:DISL:1,2012-04-04T05:00:00Z,30.2513,-88.0778,6.827,6.83,1111122 
DISL,ioos:station:DISL:DISL:1,2012-04-04T05:30:00Z,30.2513,-88.0778,6.847,7.17,1111122 
DISL,ioos:station:DISL:DISL:1,2012-04-04T06:00:00Z,30.2513,-88.0778,6.735,6.4,1111122 
DISL,ioos:station:DISL:DISL:1,2012-04-04T06:30:00Z,30.2513,-88.0778,6.704,7.24,1111122 
DISL,ioos:station:DISL:DISL:1,2012-04-04T07:00:00Z,30.2513,-88.0778,6.737,7.38,1111122 
DISL,ioos:station:DISL:DISL:1,2012-04-04T07:30:00Z,30.2513,-88.0778,6.659,7.39,1111122 
DISL,ioos:station:DISL:DISL:1,2012-04-04T08:00:00Z,30.2513,-88.0778,6.886,6.93,1111122 
DISL,ioos:station:DISL:DISL:1,2012-04-04T08:30:00Z,30.2513,-88.0778,6.827,6.99,1111122 
DISL,ioos:station:DISL:DISL:1,2012-04-04T09:00:00Z,30.2513,-88.0778,6.732,7.3,1111122 
DISL,ioos:station:DISL:DISL:1,2012-04-04T09:30:00Z,30.2513,-88.0778,6.241,7.3,1111122 
DISL,ioos:station:DISL:DISL:1,2012-04-04T10:00:00Z,30.2513,-88.0778,6.624,7.0,1111122 
DISL,ioos:station:DISL:DISL:1,2012-04-04T10:30:00Z,30.2513,-88.0778,6.727,7.35,1111122 
DISL,ioos:station:DISL:DISL:1,2012-04-04T11:00:00Z,30.2513,-88.0778,6.668,7.14,1111122 
DISL,ioos:station:DISL:DISL:1,2012-04-04T11:30:00Z,30.2513,-88.0778,6.661,7.14,1111122 
DISL,ioos:station:DISL:DISL:1,2012-04-04T12:00:00Z,30.2513,-88.0778,6.766,7.17,1111122 
DISL,ioos:station:DISL:DISL:1,2012-04-04T12:30:00Z,30.2513,-88.0778,6.724,7.11,1111122 
DISL,ioos:station:DISL:DISL:1,2012-04-04T13:00:00Z,30.2513,-88.0778,6.623,6.92,1111122 
DISL,ioos:station:DISL:DISL:1,2012-04-04T13:30:00Z,30.2513,-88.0778,6.47,6.84,1111122 
DISL,ioos:station:DISL:DISL:1,2012-04-04T14:00:00Z,30.2513,-88.0778,6.888,7.05,1111122 
DISL,ioos:station:DISL:DISL:1,2012-04-04T14:30:00Z,30.2513,-88.0778,7.16,7.12,1111122 
DISL,ioos:station:DISL:DISL:1,2012-04-04T15:00:00Z,30.2513,-88.0778,7.11,7.21,1111122 
DISL,ioos:station:DISL:DISL:1,2012-04-04T15:30:00Z,30.2513,-88.0778,6.978,6.94,1111122 
DISL,ioos:station:DISL:DISL:1,2012-04-04T16:00:00Z,30.2513,-88.0778,6.975,6.79,1111122 
DISL,ioos:station:DISL:DISL:1,2012-04-04T16:30:00Z,30.2513,-88.0778,6.786,6.73,1111122 
DISL,ioos:station:DISL:DISL:1,2012-04-04T17:00:00Z,30.2513,-88.0778,6.331,6.76,1111122 
DISL,ioos:station:DISL:DISL:1,2012-04-04T17:30:00Z,30.2513,-88.0778,6.277,6.78,1111122 
DISL,ioos:station:DISL:DISL:1,2012-04-04T18:00:00Z,30.2513,-88.0778,6.455,7.75,1111122 
DISL,ioos:station:DISL:DISL:1,2012-04-04T18:30:00Z,30.2513,-88.0778,6.638,7.62,1111122 
DISL,ioos:station:DISL:DISL:1,2012-04-04T19:00:00Z,30.2513,-88.0778,6.486,7.59,1111122 
DISL,ioos:station:DISL:DISL:1,2012-04-04T19:30:00Z,30.2513,-88.0778,6.469,6.84,1111122 
DISL,ioos:station:DISL:DISL:1,2012-04-04T20:00:00Z,30.2513,-88.0778,6.708,6.82,1111122 
DISL,ioos:station:DISL:DISL:1,2012-04-04T20:30:00Z,30.2513,-88.0778,6.827,6.47,1111122 
DISL,ioos:station:DISL:DISL:1,2012-04-04T21:00:00Z,30.2513,-88.0778,6.717,6.54,1111122 
DISL,ioos:station:DISL:DISL:1,2012-04-04T21:30:00Z,30.2513,-88.0778,6.713,7.47,1111122 
DISL,ioos:station:DISL:DISL:1,2012-04-04T22:00:00Z,30.2513,-88.0778,6.815,7.63,1111122 
DISL,ioos:station:DISL:DISL:1,2012-04-04T22:30:00Z,30.2513,-88.0778,7.06,7.57,1111122 
DISL,ioos:station:DISL:DISL:1,2012-04-04T23:00:00Z,30.2513,-88.0778,6.943,7.72,1111122 
DISL,ioos:station:DISL:DISL:1,2012-04-04T23:30:00Z,30.2513,-88.0778,6.99,7.47,1111122 
DISL,ioos:station:DISL:DISL:1,2012-04-05T00:00:00Z,30.2513,-88.0778,7.05,7.06,1111122 
DISL,ioos:station:DISL:DISL:1,2012-04-05T00:30:00Z,30.2513,-88.0778,7.14,7.83,1111122 
DISL,ioos:station:DISL:DISL:1,2012-04-05T01:00:00Z,30.2513,-88.0778,7.08,7.44,1111122 
DISL,ioos:station:DISL:DISL:1,2012-04-05T01:30:00Z,30.2513,-88.0778,7.01,6.24,1111122 
DISL,ioos:station:DISL:DISL:1,2012-04-05T02:00:00Z,30.2513,-88.0778,7.0,6.07,1111122 
DISL,ioos:station:DISL:DISL:1,2012-04-05T02:30:00Z,30.2513,-88.0778,7.14,7.93,1111122 
DISL,ioos:station:DISL:DISL:1,2012-04-05T03:00:00Z,30.2513,-88.0778,7.19,6.58,1111122 
DISL,ioos:station:DISL:DISL:1,2012-04-05T03:30:00Z,30.2513,-88.0778,7.26,7.01,1111122 
DISL,ioos:station:DISL:DISL:1,2012-04-05T04:00:00Z,30.2513,-88.0778,7.08,7.27,1111122 
DISL,ioos:station:DISL:DISL:1,2012-04-05T04:30:00Z,30.2513,-88.0778,6.971,6.61,1111122 
DISL,ioos:station:DISL:DISL:1,2012-04-05T05:00:00Z,30.2513,-88.0778,6.901,6.62,1111122 
DISL,ioos:station:DISL:DISL:1,2012-04-05T05:30:00Z,30.2513,-88.0778,7.0,6.84,1111122 
DISL,ioos:station:DISL:DISL:1,2012-04-05T06:00:00Z,30.2513,-88.0778,6.888,6.46,1111122 
DISL,ioos:station:DISL:DISL:1,2012-04-05T06:30:00Z,30.2513,-88.0778,6.889,6.37,1111122 
DISL,ioos:station:DISL:DISL:1,2012-04-05T07:00:00Z,30.2513,-88.0778,6.832,6.32,1111122 
DISL,ioos:station:DISL:DISL:1,2012-04-05T07:30:00Z,30.2513,-88.0778,6.797,6.75,1111122 
DISL,ioos:station:DISL:DISL:1,2012-04-05T08:00:00Z,30.2513,-88.0778,6.836,6.75,1111122 
DISL,ioos:station:DISL:DISL:1,2012-04-05T08:30:00Z,30.2513,-88.0778,6.795,6.52,1111122 
DISL,ioos:station:DISL:DISL:1,2012-04-05T09:00:00Z,30.2513,-88.0778,6.814,6.54,1111122 
DISL,ioos:station:DISL:DISL:1,2012-04-05T09:30:00Z,30.2513,-88.0778,6.855,6.95,1111122 
DISL,ioos:station:DISL:DISL:1,2012-04-05T10:00:00Z,30.2513,-88.0778,6.718,7.1,1111122 
DISL,ioos:station:DISL:DISL:1,2012-04-05T10:30:00Z,30.2513,-88.0778,6.776,6.4,1111122 
DISL,ioos:station:DISL:DISL:1,2012-04-05T11:00:00Z,30.2513,-88.0778,6.838,6.4,1111122 
DISL,ioos:station:DISL:DISL:1,2012-04-05T11:30:00Z,30.2513,-88.0778,6.828,4.43,1111122 
DISL,ioos:station:DISL:DISL:1,2012-04-05T12:00:00Z,30.2513,-88.0778,6.946,4.88,1111122 
DISL,ioos:station:DISL:DISL:1,2012-04-05T12:30:00Z,30.2513,-88.0778,6.989,4.8,1111122 
DISL,ioos:station:DISL:DISL:1,2012-04-05T13:00:00Z,30.2513,-88.0778,7.01,4.2,1111122 
DISL,ioos:station:DISL:DISL:1,2012-04-05T13:30:00Z,30.2513,-88.0778,7.04,4.37,1111122 
DISL,ioos:station:DISL:DISL:1,2012-04-05T14:00:00Z,30.2513,-88.0778,7.12,4.53,1111122 
DISL,ioos:station:DISL:DISL:1,2012-04-05T14:30:00Z,30.2513,-88.0778,7.18,5.28,1111122 
DISL,ioos:station:DISL:DISL:1,2012-04-05T15:00:00Z,30.2513,-88.0778,7.1,4.18,1111122 
DISL,ioos:station:DISL:DISL:1,2012-04-05T15:30:00Z,30.2513,-88.0778,7.02,6.1,1111122 
DISL,ioos:station:DISL:DISL:1,2012-04-05T16:00:00Z,30.2513,-88.0778,7.11,5.33,1111122 
DISL,ioos:station:DISL:DISL:1,2012-04-05T16:30:00Z,30.2513,-88.0778,7.12,5.55,1111122 
DISL,ioos:station:DISL:DISL:1,2012-04-05T17:00:00Z,30.2513,-88.0778,7.01,4.71,1111122 
DISL,ioos:station:DISL:DISL:1,2012-04-05T17:30:00Z,30.2513,-88.0778,6.866,5.67,1111122 
DISL,ioos:station:DISL:DISL:1,2012-04-05T18:00:00Z,30.2513,-88.0778,6.936,5.82,1111122 
DISL,ioos:station:DISL:DISL:1,2012-04-05T18:30:00Z,30.2513,-88.0778,7.01,6.43,1111122 
DISL,ioos:station:DISL:DISL:1,2012-04-05T19:00:00Z,30.2513,-88.0778,6.802,7.32,1111122 
DISL,ioos:station:DISL:DISL:1,2012-04-05T19:30:00Z,30.2513,-88.0778,6.631,7.65,1111122 
DISL,ioos:station:DISL:DISL:1,2012-04-05T20:00:00Z,30.2513,-88.0778,6.47,7.76,1111122 
DISL,ioos:station:DISL:DISL:1,2012-04-05T20:30:00Z,30.2513,-88.0778,6.373,7.69,1111122 
DISL,ioos:station:DISL:DISL:1,2012-04-05T21:00:00Z,30.2513,-88.0778,6.269,7.71,1111122 
DISL,ioos:station:DISL:DISL:1,2012-04-05T21:30:00Z,30.2513,-88.0778,6.325,7.94,1111122 
DISL,ioos:station:DISL:DISL:1,2012-04-05T22:00:00Z,30.2513,-88.0778,6.393,9.1,1111122 
DISL,ioos:station:DISL:DISL:1,2012-04-05T22:30:00Z,30.2513,-88.0778,6.422,9.81,1111122 
DISL,ioos:station:DISL:DISL:1,2012-04-05T23:00:00Z,30.2513,-88.0778,6.885,9.64,1111122 
DISL,ioos:station:DISL:DISL:1,2012-04-05T23:30:00Z,30.2513,-88.0778,6.372,9.2,1111122 
DISL,ioos:station:DISL:DISL:1,2012-04-06T00:00:00Z,30.2513,-88.0778,6.365,8.6,1111122 
DISL,ioos:station:DISL:DISL:1,2012-04-06T00:30:00Z,30.2513,-88.0778,6.496,8.16,1111122 
DISL,ioos:station:DISL:DISL:1,2012-04-06T01:00:00Z,30.2513,-88.0778,6.407,7.83,1111122 
DISL,ioos:station:DISL:DISL:1,2012-04-06T01:30:00Z,30.2513,-88.0778,6.425,7.88,1111122 
DISL,ioos:station:DISL:DISL:1,2012-04-06T02:00:00Z,30.2513,-88.0778,6.389,8.14,1111122 
DISL,ioos:station:DISL:DISL:1,2012-04-06T02:30:00Z,30.2513,-88.0778,6.442,7.42,1111122 
DISL,ioos:station:DISL:DISL:1,2012-04-06T03:00:00Z,30.2513,-88.0778,6.386,7.33,1111122 
DISL,ioos:station:DISL:DISL:1,2012-04-06T03:30:00Z,30.2513,-88.0778,6.393,7.02,1111122 
DISL,ioos:station:DISL:DISL:1,2012-04-06T04:00:00Z,30.2513,-88.0778,6.573,6.81,1111122 
DISL,ioos:station:DISL:DISL:1,2012-04-06T04:30:00Z,30.2513,-88.0778,6.636,6.84,1111122 
DISL,ioos:station:DISL:DISL:1,2012-04-06T05:00:00Z,30.2513,-88.0778,6.635,7.35,1111122 
DISL,ioos:station:DISL:DISL:1,2012-04-06T05:30:00Z,30.2513,-88.0778,6.673,7.89,1111122 
DISL,ioos:station:DISL:DISL:1,2012-04-06T06:00:00Z,30.2513,-88.0778,6.868,8.08,1111122 
DISL,ioos:station:DISL:DISL:1,2012-04-06T06:30:00Z,30.2513,-88.0778,6.817,7.97,1111122 
DISL,ioos:station:DISL:DISL:1,2012-04-06T07:00:00Z,30.2513,-88.0778,6.69,7.8,1111122 
DISL,ioos:station:DISL:DISL:1,2012-04-06T07:30:00Z,30.2513,-88.0778,6.663,7.57,1111122 
DISL,ioos:station:DISL:DISL:1,2012-04-06T08:00:00Z,30.2513,-88.0778,6.806,7.69,1111122 
DISL,ioos:station:DISL:DISL:1,2012-04-06T08:30:00Z,30.2513,-88.0778,6.697,7.46,1111122 
DISL,ioos:station:DISL:DISL:1,2012-04-06T09:00:00Z,30.2513,-88.0778,6.811,7.43,1111122 
DISL,ioos:station:DISL:DISL:1,2012-04-06T09:30:00Z,30.2513,-88.0778,6.617,7.5,1111122 
DISL,ioos:station:DISL:DISL:1,2012-04-06T10:00:00Z,30.2513,-88.0778,6.765,7.51,1111122 
DISL,ioos:station:DISL:DISL:1,2012-04-06T10:30:00Z,30.2513,-88.0778,6.792,7.53,1111122 
DISL,ioos:station:DISL:DISL:1,2012-04-06T11:00:00Z,30.2513,-88.0778,6.937,7.33,1111122 
DISL,ioos:station:DISL:DISL:1,2012-04-06T11:30:00Z,30.2513,-88.0778,7.13,7.25,1111122 
DISL,ioos:station:DISL:DISL:1,2012-04-06T12:00:00Z,30.2513,-88.0778,7.19,7.33,1111122 
DISL,ioos:station:DISL:DISL:1,2012-04-06T12:30:00Z,30.2513,-88.0778,7.12,6.42,1111122 
DISL,ioos:station:DISL:DISL:1,2012-04-06T13:00:00Z,30.2513,-88.0778,7.04,5.96,1111122 
DISL,ioos:station:DISL:DISL:1,2012-04-06T13:30:00Z,30.2513,-88.0778,7.12,5.59,1111122 
DISL,ioos:station:DISL:DISL:1,2012-04-06T14:00:00Z,30.2513,-88.0778,7.18,5.56,1111122 
DISL,ioos:station:DISL:DISL:1,2012-04-06T14:30:00Z,30.2513,-88.0778,7.36,6.31,1111122 
DISL,ioos:station:DISL:DISL:1,2012-04-06T15:00:00Z,30.2513,-88.0778,7.26,7.07,1111122 
DISL,ioos:station:DISL:DISL:1,2012-04-06T15:30:00Z,30.2513,-88.0778,7.31,6.56,1111122 